Aérodrome :
LOGIN :

S'inscrire | Disclaimer

   EN    FR    IT 

 










Légende :    VFR   VFR Marginal   IFR   IFR Intensif   IFR Très Intensif
Visi : 
Plafond : 
>= 8 km
>= 3000ft
5 à 8 km
1000 à 3000 ft
1500m à 5 km
500 à 1000 ft
800 à 1500m
200 à 500 ft
< 800m
< 200 ft
Symboles :   Orages  Brouillard  Fortes neiges  Fortes précipitations  Vent > 20 kt
SIGMETs :   Divers  Orages  Givrage  Turbulence  Onde Orograph.  Cendres Volcan.







- Altitude de l'aérodrome : 821 ft
- Code IATA : LYS
- Voir les cartes d'approche


LFLL - Lyon St Exupéry / Satolas

DERNIER METAR :
  • 240930Z 33012KT CAVOK 22/13 Q1023 NOSIG

METARs EXPIRÉS :
  • 240900Z 34012KT CAVOK 21/13 Q1023 NOSIG
  • 240834Z 33011KT CAVOK 21/13 Q1023 NOSIG
  • 240800Z 33009KT CAVOK 20/13 Q1023 NOSIG
  • 240730Z 33009KT 300V360 CAVOK 19/13 Q1023 NOSIG
  • 240700Z 34010KT CAVOK 18/13 Q1023 NOSIG

TAF TAF LFLL
Valide du 24 à 06h jusqu'au 25 à 12h UTC


240500Z 2406/2512 35010KT CAVOK
Pas de NOTAMs connus pour ce terrain.



MET'MAP, la Météo Aéronautique d'un coup d'oeil ! - Copyright ORBIFLY Décembre 2007 - Disclaimer

ORBIFLY MET'MAP TEAM :

Programmation & Développement : Alexandra Zaïnal
Conception & Développement : Baudouin d'Aumeries
Co-Programmation & Développement : Marc-Olivier Méhu
Soutien technique & logistique : Manuel Goepfert

Contact : metmap@orbifly.com




SOURCES & CREDITS :

   NOAA